Location: Grange Rosano
(44.4500°N, 6.9667°E)
Time: 19:19:48
(UTC+00:00)

Nadezhda 1 Rocket - Pass Details

Date: 26 May 2022
Orbit: 940 x 1006 km, 83.0° (Epoch: 01 July)

Event Time Altitude Azimuth Distance (km) Brightness Sun altitude
Exits shadow 02:15:04 19° 204° (SSW) 2,198 5.3 -14.3°
Maximum altitude 02:19:46 62° 281° (W) 1,111 4.2 -13.7°
Drops below altitude 10° 02:26:01 10° 2° (N) 2,747 7.1 -13.0°
Sets 02:28:34 0° 6° (N) 3,689 8.0 -12.7°
